Location: Castelnau
(43.6639°N, 0.8431°W)
Time: 17:18:58
(UTC+00:00)

Cosmos 2082 Rocket - Pass Details

Date: 13 January 2026
Orbit: 832 x 853 km, 71.0° (Epoch: 11 February)

Event Time Altitude Azimuth Distance (km) Brightness Sun altitude
Exits shadow 05:23:13 - 351° (N) 2,801 4.7 -23.3°
Reaches altitude 10° 05:24:20 10° 358° (N) 2,469 4.5 -23.1°
Maximum altitude 05:28:46 23° 50° (NE) 1,723 4.2 -22.3°
Drops below altitude 10° 05:33:13 10° 102° (ESE) 2,471 5.8 -21.5°
Sets 05:36:11 0° 116° (ESE) 3,405 6.7 -20.9°
